Regional Weather Roundup
Issued by NWS

Home | Current Version | Previous Version | Graphics & Text | Print | Product List | Glossary On
Versions: 1 2 3 4 5 6 7 8 9 10 11 12 13 14 15 16 17 18 19 20 21 22 23 24 25 26 27 28 29 30 31 32 33 34 35 36 37 38 39 40 41 42 43 44 45 46 47 48 49 50
000
ASUS43 KMKX 280921
RWRWI

WISCONSIN REGIONAL WEATHER ROUNDUP
NATIONAL WEATHER SERVICE MILWAUKEE/SULLIVAN WI
300 AM CST TUE FEB 28 2017

NOTE: "FAIR" INDICATES FEW OR NO CLOUDS BELOW 12,000 FEET WITH NO
SIGNIFICANT WEATHER AND/OR OBSTRUCTIONS TO VISIBILITY.

WIZ001-002-006>008-014>016-023>028-281000-
NORTHWEST WISCONSIN

CITY           SKY/WX    TMP DP  RH WIND       PRES   REMARKS
SUPERIOR ARPT  CLOUDY    30  29  96 NE6       29.84R WCI  24
ASHLAND        MOCLDY    26  24  92 CALM      29.82F
HAYWARD        CLOUDY    37  28  70 S6        29.79F WCI  32
SIREN          CLOUDY    36  27  71 CALM      29.78F
CUMBERLAND     CLOUDY    34  28  80 SE6       29.78F WCI  29
RICE LAKE      CLOUDY    36  30  78 SE7       29.80F WCI  30
CHETEK         CLOUDY    35  30  82 SE3       29.79F
LADYSMITH      CLOUDY    34  29  83 E5        29.83F WCI  30
EAU CLAIRE     CLOUDY    37  30  75 NE3       29.78F
MENOMONIE      CLOUDY    35  31  85 E5        29.79F WCI  31
NEW RICHMOND   CLOUDY    35  29  77 CALM      29.77F
OSCEOLA        CLOUDY    37  30  75 E5        29.79F WCI  33
$$

WIZ003>005-009-010-017-018-281000-
NORTH CENTRAL WISCONSIN

CITY           SKY/WX    TMP DP  RH WIND       PRES   REMARKS
MANITOWISH WTR CLOUDY    30  28  92 SE5       29.82F WCI  26
ARBOR VITAE    MOCLDY    34  30  85 SE3         N/A
WOODRUFF       MOCLDY    34  30  85 SE3         N/A
RHINELANDER    CLOUDY    32  28  85 SE5       29.84F WCI  27
EAGLE RIVER    CLOUDY    32  27  80 S3        29.84F
LAND O LAKES   CLOUDY    33  28  83 S5        29.86F WCI  29
PHILLIPS       PTCLDY    34  29  83 CALM      29.81F
TOMAHAWK       PTCLDY    32  28  84 CALM      29.84F
MEDFORD        CLOUDY    35  29  80 SE7       29.81F WCI  29
MERRILL        NOT AVBL
$$

WIZ029-030-035-036-043>047-281000-
CENTRAL WISCONSIN

CITY           SKY/WX    TMP DP  RH WIND       PRES   REMARKS
WAUSAU         CLOUDY    32  28  85 E7        29.85F WCI  26
MOSINEE        CLOUDY    34  32  93 E6        29.86F WCI  29
MARSHFIELD     CLOUDY    37  30  75 SE7       29.82F WCI  32
STEVENS POINT  CLOUDY    36  31  83 CALM      29.86F
WAUPACA        DRIZZLE   38  33  82 E3        29.88F
WAUTOMA        LGT RAIN  36  34  92 NE3       29.87F FOG
WISC RAPIDS    CLOUDY    38  33  82 SE6       29.86F WCI  33
CAMP DOUGLAS   CLOUDY    36  34  93 VRB3      29.84F
$$

WIZ011>013-019>022-031-037>040-048>050-281000-
NORTHEAST WISCONSIN

CITY           SKY/WX    TMP DP  RH WIND       PRES   REMARKS
ANTIGO         CLOUDY    32  30  91 SE10      29.87F WCI  24
SHAWANO        CLOUDY    39  33  78 SE3       29.89F
OCONTO         CLOUDY    36  33  88 SE8       29.92F WCI  30
STURGEON BAY   CLOUDY    39  35  86 SE13      29.94F WCI  31
GREEN BAY      CLOUDY    39  36  89 S9        29.92F WCI  33
MANITOWOC      CLOUDY    39  36  89 S7        29.95F WCI  34
APPLETON       DRIZZLE   36  34  93 SE6       29.88F WCI  31
CLINTONVILLE   CLOUDY    34  32  93 CALM      29.90F
OSHKOSH        CLOUDY    38  35  89 SE7       29.88F WCI  33
$$

WIZ032>034-041-042-053>061-281000-
SOUTHWEST WISCONSIN

CITY           SKY/WX    TMP DP  RH WIND       PRES   REMARKS
LA CROSSE      CLOUDY    40  37  89 SE6       29.77F
SPARTA         RAIN      40  39  97 SE8       29.82F WCI  35
VIROQUA        CLOUDY    37  37  99 E7        29.81F WCI  32
BOSCOBEL       CLOUDY    43  39  86 N5        29.81F
PRAIRIE DU CHI CLOUDY    39  38  94 NW5       29.79F
PLATTEVILLE    CLOUDY    40  40 100 E10       29.80F WCI  34
$$

WIZ056-057-062-063-064-067-068-281000-
SOUTH CENTRAL WISCONSIN

CITY           SKY/WX    TMP DP  RH WIND       PRES   REMARKS
REEDSBURG      LGT RAIN  38  38 100 E3        29.83F
BARABOO/DELLS  DRIZZLE   38  36  94 E7        29.84F WCI  32
LONE ROCK      CLOUDY    41  39  93 E5        29.84F FOG
MINERAL POINT  CLOUDY    43  43 100 SE10      29.80F
MADISON        CLOUDY    42  39  89 SE10      29.84F
MIDDLETON      CLOUDY    42  41  93 SE5       29.84F
WATERTOWN      LGT RAIN  40  40 100 E8        29.87F WCI  35
MONROE         CLOUDY    43  41  93 SE10      29.83F
JANESVILLE     LGT RAIN  45  45 100 SE9       29.85F
$$

WIZ051-052-058>065-066-070>072-281000-
SOUTHEAST WISCONSIN

CITY           SKY/WX    TMP DP  RH WIND       PRES   REMARKS
MILWAUKEE      RAIN      41  38  89 SE7       29.93F FOG
WAUKESHA       LGT RAIN  37  37 100 SE10      29.91F WCI  30
MILWAUKEE/TIMM RAIN      39  36  87 SE7       29.92F WCI  34
RACINE         HVY RAIN  42  39  89 VRB3      29.95F FOG
KENOSHA        TSTM      43  40  89 S6        29.93F FOG
FOND DU LAC    LGT RAIN  39  33  79 SE12      29.89F WCI  32
SHEBOYGAN      CLOUDY    38  35  89 S7        29.94F WCI  33
WEST BEND      LGT RAIN  37  37 100 SE5       29.92F WCI  34
JUNEAU         LGT RAIN  39  37  92 E10       29.88F WCI  32
$$

LSZ147-162-281000-
LAKE SUPERIOR

STATION/POSITION TIME  TEMP    WIND        PRES    WAVE
                       AIR SEA DIR/SP/G            HT/PER
                 (UTC) (F)     (DEG/KT/KT) (MB)    (FT/S)
DEVILS ISLAND    0900   34      70/  9/ 10 1010.6F
PORT WING        0830   27     150/  2/  2 1010.2F
SAXON HARBOR     0840   30     160/  1/  2 1009.8F
$$

LMZ867-665-643>646-281000-
LAKE MICHIGAN

STATION/POSITION TIME  TEMP    WIND        PRES    WAVE
                       AIR SEA DIR/SP/G            HT/PER
                 (UTC) (F)     (DEG/KT/KT) (MB)    (FT/S)
CHAMBERS ISLAND  0840   39     140/  7/ 12 1014.2F
NORTHPORT PIER   0840   37     150/  9/ 13 1014.9F
SISTER BAY       0805   38     150/ 10/ 13   N/A
ALGOMA LAKESHORE 0741             CALM       N/A
KEWAUNEE LAKESHO 0854   37     200/  3/  8 1013.7F
SHEBOYGAN LAKESH 0900   39     170/ 18/ 20 1014.2F
PORT WASHINGTON  0830   39     190/  3/  5 1015.6F
MILWAUKEE LAKESH 0900   39     150/  4/  5   N/A
KENOSHA   LAKESH 0900   41     130/ 15/ 19 1012.5
$$

TC  - TEMPERATURE IN CELSIUS
VSB - VISIBILITY IN STATUTE MILES
WCI - WIND CHILL INDEX
HX  - HEAT INDEX





USA.gov is the U.S. government's official web portal to all federal, state and local government web resources and services.